Clarksville, TN

12:10 PM CDT on April 25, 2017 (GMT -0500)
Outlaw

Weather History for KCKV - September, 2012

Change the Weather History Date:

Thursday, September 27, 2012

  Actual Average Record
Temperature  
Mean Temperature 73 °F 66 °F  
Max Temperature 81 °F 78 °F 92 °F (1954)
Min Temperature 64 °F 53 °F 39 °F (1991)
Degree Days  
Heating Degree Days 0 3  
Month to date heating degree days 35 18  
Since 1 July heating degree days 35 19  
Cooling Degree Days 8 3  
Month to date cooling degree days 163 171  
Year to date cooling degree days 1391  
Growing Degree Days 22 (Base 50)    
Moisture  
Dew Point 64 °F    
Average Humidity 74    
Maximum Humidity 93    
Minimum Humidity 54    
Precipitation  
Precipitation 0.06 in 0.13 in 1.17 in (1974)
Month to date precipitation 3.78 3.11  
Year to date precipitation 36.24  
Sea Level Pressure  
Sea Level Pressure 30.12 in    
Wind  
Wind Speed 3 mph (WNW)    
Max Wind Speed 12 mph    
Max Gust Speed 14 mph    
Visibility 9 miles    
Events Rain , Thunderstorm    
T = Trace of Precipitation, MM = Missing Value Source: NWS Daily Summary

Daily Weather History Graph

Daily Weather History Graph

Search for Another Location

Airport or City:

Trip Planner

Search our weather history database for the weather conditions in past years. The results will help you decide how hot, cold, wet, or windy it might be!

Date:

Astronomy

Sep. 27, 2012 Rise Set
Actual Time 6:41 AM CDT 6:38 PM CDT
Civil Twilight 6:16 AM CDT 7:04 PM CDT
Nautical Twilight 5:46 AM CDT 7:33 PM CDT
Astronomical Twilight 5:15 AM CDT 8:04 PM CDT
Moon 5:07 PM CDT (9/27) 4:13 AM CDT (9/27)
Length of Visible Light 12h 47m
Length of Day
11h 56m
Waxing Gibbous, 94% of the Moon is Illuminated
Sep 27
Waxing Gibbous
Sep 29
Full
Oct 8
Last Quarter
Oct 15
New
Oct 21
First Quarter

Hourly Weather History & Observations

Time (CDT) Temp. Heat Index Dew Point Humidity Pressure Visibility Wind Dir Wind Speed Gust Speed Precip Events Conditions
12:52 AM 66.0 °F - 63.0 °F 90% 30.09 in 10.0 mi Calm Calm - N/A   Scattered Clouds
1:52 AM 66.0 °F - 63.0 °F 90% 30.09 in 10.0 mi Calm Calm - N/A   Mostly Cloudy
2:52 AM 64.9 °F - 63.0 °F 93% 30.09 in 10.0 mi Calm Calm - N/A   Scattered Clouds
4:49 AM 64.4 °F - 62.6 °F 94% 30.14 in 8.0 mi NNW 8.1 mph - 0.01 in Rain , Thunderstorm Light Thunderstorms and Rain
4:52 AM 66.0 °F - 63.0 °F 90% 30.13 in 7.0 mi NNW 6.9 mph - 0.01 in Rain , Thunderstorm Light Thunderstorms and Rain
5:05 AM 66.2 °F - 64.4 °F 94% 30.14 in 10.0 mi Calm Calm - 0.00 in   Overcast
5:52 AM 66.0 °F - 63.0 °F 90% 30.15 in 5.0 mi WNW 5.8 mph - 0.02 in Rain , Thunderstorm Light Thunderstorms and Rain
6:19 AM 66.2 °F - 62.6 °F 88% 30.16 in 10.0 mi West 3.5 mph - 0.00 in Rain Light Rain
7:52 AM 66.0 °F - 64.0 °F 93% 30.15 in 6.0 mi SE 3.5 mph - 0.02 in Rain Light Rain
8:52 AM 68.0 °F - 64.0 °F 87% 30.16 in 10.0 mi Calm Calm - 0.00 in   Scattered Clouds
9:52 AM 70.0 °F - 64.9 °F 84% 30.17 in 10.0 mi Calm Calm - 0.00 in   Scattered Clouds
10:52 AM 72.0 °F - 64.9 °F 78% 30.17 in 10.0 mi West 5.8 mph - N/A   Mostly Cloudy
11:52 AM 75.0 °F - 64.9 °F 71% 30.13 in 10.0 mi SSW 11.5 mph - 0.00 in   Clear
12:52 PM 75.9 °F - 64.0 °F 67% 30.13 in 10.0 mi Calm Calm - N/A   Clear
1:52 PM 78.1 °F - 64.9 °F 64% 30.11 in 10.0 mi WSW 3.5 mph - N/A   Clear
2:52 PM 80.1 °F 81.7 °F 64.0 °F 58% 30.09 in 10.0 mi WSW 5.8 mph - N/A   Clear
3:52 PM 81.0 °F 82.5 °F 64.0 °F 56% 30.08 in 10.0 mi WSW 6.9 mph - N/A   Scattered Clouds
4:52 PM 80.1 °F 81.5 °F 63.0 °F 56% 30.07 in 10.0 mi Calm Calm - N/A   Partly Cloudy
6:52 PM 72.0 °F - 64.9 °F 78% 30.07 in 10.0 mi NNE 3.5 mph - N/A   Partly Cloudy
7:52 PM 72.0 °F - 64.9 °F 78% 30.09 in 10.0 mi Calm Calm - N/A   Clear
8:52 PM 71.1 °F - 66.0 °F 84% 30.09 in 10.0 mi Calm Calm - N/A   Partly Cloudy
9:52 PM 66.9 °F - 64.9 °F 93% 30.09 in 9.0 mi Calm Calm - N/A   Partly Cloudy
10:52 PM 68.0 °F - 66.0 °F 93% 30.09 in 7.0 mi NNE 3.5 mph - N/A   Mostly Cloudy
11:52 PM 70.0 °F - 66.0 °F 87% 30.09 in 8.0 mi Calm Calm - N/A   Mostly Cloudy